Location: Caltech
(34.1382°N, 118.1253°W)
Time: 10:53:36
(UTC-08:00)

PCSat - Visible Passes

Search period start: 08 February 2016 00:00
Search period end: 18 February 2016 00:00
Orbit: 785 x 796 km, 67.1° (Epoch: 08 February)

Date Brightness Start Highest point End Pass type
(mag) Time Alt. Az. Time Alt. Az. Time Alt. Az.
08 Feb 11.5 19:30:37 10° N 19:32:02 16° N 19:32:02 16° N visible
09 Feb 11.2 19:00:16 10° N 19:02:43 18° NNE 19:02:43 18° NNE visible
09 Feb 12.1 20:42:42 10° NW 20:43:29 14° NW 20:43:29 14° NW visible
10 Feb 11.2 18:30:10 10° NNE 18:33:16 15° NE 18:33:33 15° NE visible
10 Feb 11.2 20:11:47 10° NNW 20:14:20 28° NW 20:14:20 28° NW visible
11 Feb 11.4 18:00:45 10° NNE 18:02:12 11° NE 18:03:37 10° ENE visible
11 Feb 9.8 19:40:57 10° NNW 19:45:22 59° N 19:45:22 59° N visible
12 Feb 9.6 19:10:14 10° NNW 19:15:36 57° ENE 19:16:41 48° ESE visible
12 Feb 12.2 20:55:22 10° WNW 20:57:30 15° W 20:57:30 15° W visible
13 Feb 10.0 18:39:37 10° N 18:44:44 41° ENE 18:48:21 18° ESE visible
13 Feb 11.7 20:23:41 10° WNW 20:27:49 22° WSW 20:29:13 20° SW visible
14 Feb 10.4 18:09:06 10° N 18:13:49 29° NE 18:18:31 10° ESE visible
14 Feb 11.2 19:52:23 10° NW 19:57:09 32° WSW 20:01:31 12° SSW visible
15 Feb 10.6 19:21:18 10° NW 19:26:28 46° WSW 19:31:35 10° S visible
16 Feb 9.9 18:50:21 10° NNW 18:55:44 67° WSW 19:01:05 10° SSE visible
17 Feb 9.6 18:19:30 10° NNW 18:24:58 87° ENE 18:30:22 10° SSE visible
